GW3943 Weather Reports


time (UTC)temp
C
wind
direction
speed
KPH
gust
KPH
rain 1hr
cm
rain 24hr
cm
rain mn
cm
humidity
%
barometer
mb
20260506051336 13 173 0.0 0.0 0.00 0.00 0.00 99 1015.8
20260506050833 13 173 0.0 0.0 0.00 0.00 0.00 99 1015.8
20260506050330 14 173 0.0 0.0 0.00 0.00 0.00 99 1015.8
20260506044821 -17 0.0 0.0 0.00 0.00 0.00 1016.1
20260506044319 -17 0.0 0.0 0.00 0.00 0.00 1016.1
20260506043816 -17 0.0 0.0 0.00 0.00 0.00 1016.2
20260506043314 -17 0.0 0.0 0.00 0.00 0.00 1016.2
20260506042812 -17 0.0 0.0 0.00 0.00 0.00 1016.2
20260506042311 15 173 0.0 0.0 0.00 0.00 0.00 99 1016.0
20260506041809 15 173 0.0 0.0 0.00 0.00 0.00 99 1016.1
20260506041305 15 173 0.0 0.0 0.00 0.00 0.00 99 1016.4
20260506040802 15 173 0.0 0.0 0.00 0.00 0.00 99 1016.4
20260506040259 15 172 0.0 1.6 0.00 0.00 0.00 99 1016.5
20260506035756 15 170 0.0 0.0 0.00 0.00 0.00 99 1016.4
20260506035253 14 170 0.0 0.0 0.00 0.00 0.00 99 1016.2
20260506034750 14 170 0.0 0.0 0.00 0.00 0.00 99 1016.6
20260506034247 15 170 0.0 0.0 0.00 0.00 0.00 99 1016.3
20260506033744 15 170 0.0 0.0 0.00 0.00 0.00 99 1016.6
20260506033241 15 170 0.0 0.0 0.00 0.00 0.00 99 1016.5
20260506032738 15 170 0.0 0.0 0.00 0.00 0.00 98 1016.5
20260506032235 15 170 0.0 0.0 0.00 0.00 0.00 98 1016.3
20260506031732 15 170 0.0 0.0 0.00 0.00 0.00 98 1016.6
20260506031229 15 170 0.0 0.0 0.00 0.00 0.00 97 1016.9
20260506030727 15 170 0.0 0.0 0.00 0.00 0.00 97 1016.7
20260506030224 15 170 0.0 0.0 0.00 0.00 0.00 96 1016.6
20260506025721 15 171 0.0 0.0 0.00 0.00 0.00 96 1016.6
20260506025217 16 166 0.0 0.0 0.00 0.00 0.00 95 1016.4
20260506024714 16 150 0.0 1.6 0.00 0.00 0.00 95 1016.5
20260506024211 16 151 0.0 0.0 0.00 0.00 0.00 94 1016.5
20260506023707 16 158 1.6 1.6 0.00 0.00 0.00 94 1016.4
20260506023205 16 148 1.6 3.2 0.00 0.00 0.00 94 1016.4
20260506022701 16 163 0.0 1.6 0.00 0.00 0.00 93 1016.5
20260506022159 16 145 0.0 1.6 0.00 0.00 0.00 93 1016.4
20260506021657 16 140 0.0 1.6 0.00 0.00 0.00 92 1016.5
20260506021154 16 158 0.0 0.0 0.00 0.00 0.00 92 1016.4
20260506020651 16 148 0.0 0.0 0.00 0.00 0.00 91 1016.3
20260506020148 16 159 0.0 1.6 0.00 0.00 0.00 91 1016.4
20260506015646 16 148 1.6 1.6 0.00 0.00 0.00 90 1016.2
20260506015143 16 136 0.0 0.0 0.00 0.00 0.00 89 1016.2
20260506014641 17 143 1.6 1.6 0.00 0.00 0.00 89 1016.3
20260506014136 17 136 0.0 0.0 0.00 0.00 0.00 88 1016.2
20260506013634 17 145 1.6 3.2 0.00 0.00 0.00 88 1016.4
20260506013131 17 140 3.2 3.2 0.00 0.00 0.00 87 1016.3
20260506012627 17 154 0.0 1.6 0.00 0.00 0.00 87 1016.2
20260506012123 17 137 0.0 1.6 0.00 0.00 0.00 86 1016.3
20260506011621 17 150 0.0 0.0 0.00 0.00 0.00 86 1016.2
20260506011117 17 174 1.6 3.2 0.00 0.00 0.00 86 1016.0
20260506010611 17 141 0.0 1.6 0.00 0.00 0.00 86 1016.1
20260506005559 17 173 3.2 3.2 0.00 0.00 0.00 84 1016.0
20260506005055 17 148 0.0 0.0 0.00 0.00 0.00 83 1015.8
20260506004553 17 138 1.6 1.6 0.00 0.00 0.00 83 1015.9
20260506004049 18 138 0.0 1.6 0.00 0.00 0.00 83 1016.0
20260506003546 18 130 0.0 0.0 0.00 0.00 0.00 82 1015.9
20260506003042 18 132 0.0 1.6 0.00 0.00 0.00 81 1015.8
20260506002538 18 164 1.6 3.2 0.00 0.00 0.00 81 1015.9
20260506002034 18 144 1.6 1.6 0.00 0.00 0.00 80 1016.0
20260506001530 18 180 1.6 3.2 0.00 0.00 0.00 79 1015.6
20260506001028 18 188 6.4 9.7 0.00 0.00 0.00 79 1015.6
20260506000525 18 124 0.0 0.0 0.00 0.00 0.00 79 1015.9
20260506000022 19 126 3.2 4.8 0.00 0.00 0.00 78 1015.7
20260505235520 19 149 0.0 0.0 0.00 0.00 0.00 77 1015.8
20260505235016 20 174 6.4 11.3 0.00 0.00 0.00 76 1015.7
20260505234513 20 145 1.6 1.6 0.00 0.00 0.00 75 1015.7
20260505234010 20 128 1.6 1.6 0.00 0.00 0.00 75 1015.6
20260505233508 20 193 6.4 6.4 0.00 0.00 0.00 74 1015.8
20260505233005 20 133 3.2 3.2 0.00 0.00 0.00 74 1016.0
20260505232503 20 120 0.0 0.0 0.00 0.00 0.00 75 1015.8
20260505232000 20 155 3.2 4.8 0.00 0.00 0.00 74 1015.7
20260505231457 21 182 9.7 14.5 0.00 0.00 0.00 72 1015.8
20260505230955 21 154 8.0 14.5 0.00 0.00 0.00 72 1015.7
20260505230452 21 189 11.3 14.5 0.00 0.00 0.00 72 1015.7
20260505225948 21 180 9.7 14.5 0.00 0.00 0.00 72 1015.6
20260505225446 21 222 9.7 12.9 0.00 0.00 0.00 72 1015.7
20260505224942 21 126 1.6 1.6 0.00 0.00 0.00 72 1015.9
20260505224439 21 170 3.2 6.4 0.00 0.00 0.00 71 1015.9
20260505223937 22 137 1.6 3.2 0.00 0.00 0.00 71 1015.8
20260505223433 22 109 1.6 1.6 0.00 0.00 0.00 71 1015.8
20260505222930 21 136 3.2 9.7 0.00 0.00 0.00 71 1016.1
20260505222426 22 193 6.4 11.3 0.00 0.00 0.00 70 1015.8
20260505221921 22 358 4.8 4.8 0.00 0.00 0.00 70 1015.6
20260505221419 22 201 8.0 9.7 0.00 0.00 0.00 70 1015.6
20260505220916 22 273 6.4 11.3 0.00 0.00 0.00 69 1015.6
20260505220413 22 269 11.3 16.1 0.00 0.00 0.00 68 1015.5
20260505215910 22 161 3.2 4.8 0.00 0.00 0.00 69 1015.8
20260505215409 22 161 6.4 14.5 0.00 0.00 0.00 68 1015.5
20260505214906 23 185 3.2 9.7 0.00 0.00 0.00 68 1015.8
20260505214403 23 214 8.0 11.3 0.00 0.00 0.00 68 1015.8
20260505213900 23 193 9.7 14.5 0.00 0.00 0.00 68 1015.6
20260505213358 23 125 6.4 9.7 0.00 0.00 0.00 69 1015.8
20260505212854 22 185 9.7 14.5 0.00 0.00 0.00 68 1015.6
20260505212351 23 195 6.4 11.3 0.00 0.00 0.00 67 1015.6
20260505211847 23 144 4.8 6.4 0.00 0.00 0.00 68 1015.4
20260505211345 23 124 11.3 14.5 0.00 0.00 0.00 67 1015.3
20260505210841 23 105 0.0 0.0 0.00 0.00 0.00 69 1015.5
20260505210338 23 262 3.2 6.4 0.00 0.00 0.00 67 1015.5
20260505205835 23 162 8.0 12.9 0.00 0.00 0.00 68 1015.6
20260505205333 23 166 9.7 17.7 0.00 0.00 0.00 67 1015.5
20260505204830 23 131 3.2 4.8 0.00 0.00 0.00 68 1015.5
20260505204328 23 76 3.2 6.4 0.00 0.00 0.00 69 1015.3
20260505203825 23 85 3.2 6.4 0.00 0.00 0.00 69 1015.6
20260505203321 23 155 9.7 16.1 0.00 0.00 0.00 67 1015.5
20260505202818 23 200 9.7 14.5 0.00 0.00 0.00 67 1015.5
20260505202314 23 188 4.8 6.4 0.00 0.00 0.00 67 1015.7
20260505201811 23 176 1.6 4.8 0.00 0.00 0.00 68 1015.5
20260505201308 23 157 3.2 6.4 0.00 0.00 0.00 67 1015.6
20260505200806 23 167 9.7 20.9 0.00 0.00 0.00 65 1015.5
20260505200303 23 23 1.6 6.4 0.00 0.00 0.00 65 1015.7
20260505195758 23 173 9.7 12.9 0.00 0.00 0.00 65 1015.6
20260505195256 24 148 9.7 16.1 0.00 0.00 0.00 64 1016.0
20260505194753 23 195 11.3 14.5 0.00 0.00 0.00 62 1016.0
20260505194250 23 148 3.2 3.2 0.00 0.00 0.00 62 1016.1
20260505193745 24 220 4.8 4.8 0.00 0.00 0.00 60 1016.1
20260505193243 24 191 3.2 4.8 0.00 0.00 0.00 61 1016.1
20260505192741 24 146 3.2 9.7 0.00 0.00 0.00 62 1016.2
20260505192239 25 147 6.4 9.7 0.00 0.00 0.00 59 1016.1
20260505191737 25 294 4.8 4.8 0.00 0.00 0.00 61 1016.2
20260505191235 24 208 4.8 14.5 0.00 0.00 0.00 59 1016.4
20260505190731 25 256 3.2 3.2 0.00 0.00 0.00 60 1016.2
20260505190226 23 234 1.6 4.8 0.00 0.00 0.00 61 1016.1
20260505185722 25 154 3.2 9.7 0.00 0.00 0.00 60 1016.5
20260505185219 24 112 4.8 6.4 0.00 0.00 0.00 62 1016.5
20260505184715 24 121 11.3 20.9 0.00 0.00 0.00 60 1016.5
20260505184213 25 182 6.4 9.7 0.00 0.00 0.00 61 1016.4
20260505183709 25 169 6.4 9.7 0.00 0.00 0.00 62 1016.6
20260505183207 25 202 11.3 14.5 0.00 0.00 0.00 61 1016.7
20260505182702 25 140 4.8 4.8 0.00 0.00 0.00 61 1016.5
20260505182159 25 149 12.9 17.7 0.00 0.00 0.00 61 1016.7
20260505181655 25 176 3.2 3.2 0.00 0.00 0.00 63 1016.8
20260505181153 24 146 3.2 4.8 0.00 0.00 0.00 63 1016.7
20260505180644 25 189 12.9 16.1 0.00 0.00 0.00 61 1016.5
20260505180141 24 167 8.0 11.3 0.00 0.00 0.00 62 1016.4
20260505175636 25 111 8.0 14.5 0.00 0.00 0.00 62 1016.8
20260505175128 24 124 6.4 9.7 0.00 0.00 0.00 62 1016.6
20260505174625 23 184 4.8 9.7 0.00 0.00 0.00 65 1016.6
20260505174121 23 173 3.2 4.8 0.00 0.00 0.00 66 1016.7
20260505173617 24 163 6.4 11.3 0.00 0.00 0.00 63 1016.8
20260505173114 24 122 6.4 9.7 0.00 0.00 0.00 63 1016.8
20260505172612 25 188 3.2 4.8 0.00 0.00 0.00 64 1016.8
20260505172108 23 172 0.0 1.6 0.00 0.00 0.00 67 1016.8
20260505171603 23 135 3.2 6.4 0.00 0.00 0.00 66 1016.6
20260505171100 23 229 6.4 9.7 0.00 0.00 0.00 65 1016.8
20260505170557 25 142 6.4 9.7 0.00 0.00 0.00 63 1016.6
20260505170054 24 148 3.2 3.2 0.00 0.00 0.00 65 1016.7
20260505165549 23 172 16.1 16.1 0.00 0.00 0.00 63 1016.8
20260505165045 23 150 8.0 11.3 0.00 0.00 0.00 64 1016.8
20260505164540 24 83 0.0 0.0 0.00 0.00 0.00 64 1017.0
20260505164038 23 143 3.2 4.8 0.00 0.00 0.00 65 1016.9
20260505163537 24 197 3.2 4.8 0.00 0.00 0.00 61 1016.7
20260505163033 24 195 11.3 16.1 0.00 0.00 0.00 63 1017.1
20260505162526 23 160 3.2 4.8 0.00 0.00 0.00 63 1017.0
20260505162023 23 135 6.4 6.4 0.00 0.00 0.00 60 1017.1
20260505161520 24 180 4.8 6.4 0.00 0.00 0.00 64 1017.2
20260505161017 24 239 8.0 11.3 0.00 0.00 0.00 62 1017.2
20260505160515 23 108 6.4 16.1 0.00 0.00 0.00 63 1017.1
20260505152951 23 143 4.8 4.8 0.00 0.00 0.00 68 1017.4
20260505152449 22 212 6.4 6.4 0.00 0.00 0.00 68 1017.6
20260505151944 23 176 4.8 4.8 0.00 0.00 0.00 65 1017.5
20260505151439 22 156 1.6 1.6 0.00 0.00 0.00 68 1017.5
20260505150936 23 226 8.0 11.3 0.00 0.00 0.00 67 1017.6
20260505150428 22 189 0.0 1.6 0.00 0.00 0.00 65 1017.9
20260505140358 21 207 6.4 9.7 0.00 0.00 0.00 73 1017.6
20260505124812 19 197 1.6 1.6 0.00 0.00 0.00 84 1017.7
20260505124309 18 229 3.2 4.8 0.00 0.00 0.00 85 1017.7
20260505123804 18 183 6.4 9.7 0.00 0.00 0.00 85 1017.7
20260505123301 18 153 0.0 1.6 0.00 0.00 0.00 87 1017.4
20260505122757 17 123 0.0 0.0 0.00 0.00 0.00 88 1017.6
20260505122255 17 199 6.4 9.7 0.00 0.00 0.00 88 1017.7
20260505121751 17 155 1.6 1.6 0.00 0.00 0.00 88 1017.6
20260505121248 17 163 1.6 1.6 0.00 0.00 0.00 89 1017.7
20260505120744 16 156 1.6 1.6 0.00 0.00 0.00 89 1017.5
20260505120241 16 203 3.2 3.2 0.00 0.00 0.00 88 1017.5
20260505115739 16 202 0.0 0.0 0.00 0.00 0.00 91 1017.7
20260505115237 15 202 0.0 0.0 0.00 0.00 0.00 94 1017.7
20260505114734 15 203 0.0 0.0 0.00 0.00 0.00 96 1017.6
20260505114230 14 202 0.0 0.0 0.00 0.00 0.00 99 1017.3
20260505113727 13 203 0.0 1.6 0.00 0.00 0.00 99 1017.4
20260505113224 12 203 0.0 0.0 0.00 0.00 0.00 99 1017.3
20260505112720 12 203 0.0 0.0 0.00 0.00 0.00 99 1017.2
20260505112218 12 203 0.0 0.0 0.00 0.00 0.00 99 1017.4
20260505111717 11 203 0.0 0.0 0.00 0.00 0.00 99 1017.3
20260505111214 11 203 0.0 0.0 0.00 0.00 0.00 99 1017.1
20260505110709 11 203 0.0 0.0 0.00 0.00 0.00 99 1017.0
20260505110207 10 203 0.0 0.0 0.00 0.00 0.00 99 1017.1
20260505102143 8 202 0.0 0.0 0.00 0.00 0.00 99 1016.5
20260505101642 8 202 0.0 0.0 0.00 0.00 0.00 99 1016.5
20260505101137 8 202 0.0 0.0 0.00 0.00 0.00 99 1016.5
20260505100633 9 202 0.0 0.0 0.00 0.00 0.00 99 1016.4
20260505100130 10 202 0.0 0.0 0.00 0.00 0.00 99 1016.5
20260505095626 10 202 0.0 0.0 0.00 0.00 0.00 99 1016.1
20260505095124 9 202 0.0 0.0 0.00 0.00 0.00 99 1016.2
20260505094620 9 202 0.0 0.0 0.00 0.00 0.00 99 1016.1
20260505094116 10 202 0.0 0.0 0.00 0.00 0.00 99 1016.1
20260505093613 10 202 0.0 0.0 0.00 0.00 0.00 99 1016.1
20260505093110 10 202 0.0 0.0 0.00 0.00 0.00 99 1016.1
20260505092607 10 202 0.0 0.0 0.00 0.00 0.00 99 1016.1
20260505092106 10 202 0.0 0.0 0.00 0.00 0.00 99 1015.8
20260505091602 10 202 0.0 0.0 0.00 0.00 0.00 99 1015.9
20260505091101 10 202 0.0 0.0 0.00 0.00 0.00 99 1016.0
20260505090558 9 202 0.0 0.0 0.00 0.00 0.00 99 1016.1
20260505090056 9 202 0.0 0.0 0.00 0.00 0.00 99 1015.8
20260505085553 10 202 0.0 0.0 0.00 0.00 0.00 99 1015.8
20260505085051 9 202 0.0 0.0 0.00 0.00 0.00 99 1015.7
20260505084549 10 202 0.0 0.0 0.00 0.00 0.00 99 1015.6
20260505084047 10 202 0.0 0.0 0.00 0.00 0.00 99 1015.7
20260505083544 10 202 0.0 0.0 0.00 0.00 0.00 99 1015.9
20260505083040 10 202 0.0 0.0 0.00 0.00 0.00 99 1015.6
20260505082536 10 202 0.0 0.0 0.00 0.00 0.00 99 1015.8
20260505082033 10 203 0.0 0.0 0.00 0.00 0.00 99 1015.8
20260505081530 10 203 0.0 0.0 0.00 0.00 0.00 99 1015.8
20260505081027 10 203 0.0 0.0 0.00 0.00 0.00 99 1015.7
20260505080523 10 203 0.0 0.0 0.00 0.00 0.00 99 1015.9
20260505080020 10 203 0.0 0.0 0.00 0.00 0.00 99 1015.5
20260505075516 11 203 0.0 0.0 0.00 0.00 0.00 99 1015.9
20260505075013 11 203 0.0 1.6 0.00 0.00 0.00 99 1015.7
20260505074510 11 197 0.0 0.0 0.00 0.00 0.00 98 1015.6
20260505074007 11 198 0.0 1.6 0.00 0.00 0.00 99 1015.6
20260505073504 11 198 0.0 0.0 0.00 0.00 0.00 99 1015.6
20260505073003 10 198 0.0 0.0 0.00 0.00 0.00 99 1015.4
20260505072458 11 198 0.0 0.0 0.00 0.00 0.00 99 1015.5
20260505071954 11 198 1.6 1.6 0.00 0.00 0.00 99 1015.5
20260505071450 10 197 0.0 1.6 0.00 0.00 0.00 99 1015.4
20260505070948 11 196 0.0 0.0 0.00 0.00 0.00 99 1015.5
20260505070445 10 196 0.0 0.0 0.00 0.00 0.00 99 1015.6
20260505065940 10 196 0.0 0.0 0.00 0.00 0.00 99 1015.6
20260505065437 10 196 0.0 0.0 0.00 0.00 0.00 98 1015.6
20260505064934 10 196 0.0 0.0 0.00 0.00 0.00 97 1015.8
20260505064431 11 196 0.0 0.0 0.00 0.00 0.00 97 1015.7
20260505063929 11 196 0.0 0.0 0.00 0.00 0.00 96 1015.7
20260505063425 11 196 0.0 0.0 0.00 0.00 0.00 96 1015.7
20260505062922 11 196 0.0 0.0 0.00 0.00 0.00 96 1015.8
20260505062419 12 196 0.0 0.0 0.00 0.00 0.00 96 1015.9
20260505061916 12 196 0.0 0.0 0.00 0.00 0.00 96 1015.6
20260505061414 12 196 0.0 0.0 0.00 0.00 0.00 95 1015.6
20260505060911 12 196 0.0 0.0 0.00 0.00 0.00 95 1015.9
20260505060408 12 196 0.0 0.0 0.00 0.00 0.00 94 1015.8